Pope AFB, NC

3:33 PM EST on February 24, 2017 (GMT -0500)
Pope Field Airport

Weather History for KPOB - March, 2013

Change the Weather History Date:

Thursday, March 7, 2013

  Actual Average Record
Temperature  
Mean Temperature 44 °F -  
Max Temperature 55 °F 61 °F 77 °F (1992)
Min Temperature 34 °F 37 °F 21 °F (2015)
Degree Days  
Heating Degree Days 20    
Moisture  
Dew Point 28 °F    
Average Humidity 54    
Maximum Humidity 76    
Minimum Humidity 37    
Precipitation  
Precipitation 0.00 in - - ()
Sea Level Pressure  
Sea Level Pressure 30.16 in    
Wind  
Wind Speed 10 mph (NNW)    
Max Wind Speed 17 mph    
Max Gust Speed 24 mph    
Visibility 10 miles    
Events      
Averages and records for this station are not official NWS values.
T = Trace of Precipitation, MM = Missing Value Source: NWS Daily Summary

Daily Weather History Graph

Daily Weather History Graph

Search for Another Location

Airport or City:

Trip Planner

Search our weather history database for the weather conditions in past years. The results will help you decide how hot, cold, wet, or windy it might be!

Date:

Astronomy

Mar. 07, 2013 Rise Set
Actual Time 6:37 AM EST 6:17 PM EST
Civil Twilight 6:12 AM EST 6:42 PM EST
Nautical Twilight 5:42 AM EST 7:11 PM EST
Astronomical Twilight 5:13 AM EST 7:41 PM EST
Moon 3:27 AM EST (3/7) 2:10 PM EST (3/7)
Length of Visible Light 12h 30m
Length of Day
11h 39m
Waning Crescent, 20% of the Moon is Illuminated
Mar 7
Waning Crescent
Mar 11
New
Mar 19
First Quarter
Mar 27
Full
Apr 3
Last Quarter

Hourly Weather History & Observations

Time (EST) Temp. Windchill Dew Point Humidity Pressure Visibility Wind Dir Wind Speed Gust Speed Precip Events Conditions
12:58 AM 36.5 °F 30.3 °F 27.3 °F 69% 30.07 in 10.0 mi NW 8.1 mph - N/A   Clear
1:58 AM 35.6 °F 29.2 °F 27.3 °F 72% 30.09 in 10.0 mi NW 8.1 mph - N/A   Clear
2:58 AM 35.6 °F 28.0 °F 27.3 °F 72% 30.09 in 10.0 mi NNW 10.4 mph - N/A   Clear
3:58 AM 35.8 °F 29.4 °F 27.1 °F 71% 30.09 in 10.0 mi NW 8.1 mph - N/A   Clear
4:58 AM 35.6 °F 28.0 °F 27.0 °F 71% 30.10 in 10.0 mi NNW 10.4 mph - N/A   Clear
5:58 AM 35.4 °F 29.0 °F 27.1 °F 72% 30.14 in 10.0 mi NW 8.1 mph - N/A   Clear
6:58 AM 34.9 °F 27.7 °F 27.9 °F 76% 30.17 in 10.0 mi NW 9.2 mph - N/A   Clear
7:58 AM 39.2 °F 32.5 °F 28.4 °F 65% 30.19 in 10.0 mi NW 10.4 mph - N/A   Clear
8:58 AM 44.1 °F 37.1 °F 28.8 °F 55% 30.19 in 10.0 mi North 15.0 mph 24.2 mph N/A   Clear
9:58 AM 47.1 °F - 28.8 °F 49% 30.19 in 10.0 mi NNW 17.3 mph - N/A   Clear
10:58 AM 49.6 °F - 29.1 °F 45% 30.18 in 10.0 mi North 11.5 mph - N/A   Clear
11:58 AM 52.0 °F - 28.8 °F 41% 30.17 in 10.0 mi NW 12.7 mph 17.3 mph N/A   Scattered Clouds
12:58 PM 52.0 °F - 28.6 °F 41% 30.14 in 10.0 mi WNW 13.8 mph 20.7 mph N/A   Scattered Clouds
1:58 PM 54.5 °F - 30.0 °F 39% 30.12 in 10.0 mi NW 9.2 mph - N/A   Partly Cloudy
2:58 PM 55.4 °F - 29.5 °F 37% 30.12 in 10.0 mi NW 17.3 mph - N/A   Clear
2:59 PM 55.4 °F - 30.2 °F 38% 30.11 in 10.0 mi NW 16.1 mph - N/A   Clear
3:58 PM 54.7 °F - 28.8 °F 37% 30.12 in 10.0 mi NNW 11.5 mph - N/A   Clear
4:58 PM 54.0 °F - 28.2 °F 37% 30.12 in 10.0 mi North 11.5 mph - N/A   Clear
5:58 PM 52.0 °F - 28.4 °F 40% 30.15 in 10.0 mi North 8.1 mph - N/A   Clear
6:58 PM 47.5 °F - 29.3 °F 49% 30.19 in 10.0 mi NNE 4.6 mph - N/A   Clear
7:58 PM 45.7 °F 42.0 °F 28.8 °F 52% 30.20 in 10.0 mi North 6.9 mph - N/A   Clear
8:58 PM 43.9 °F 38.8 °F 28.2 °F 54% 30.22 in 10.0 mi North 9.2 mph - N/A   Clear
9:58 PM 42.8 °F 38.0 °F 26.8 °F 53% 30.25 in 10.0 mi North 8.1 mph - N/A   Clear
10:58 PM 40.8 °F 36.2 °F 25.5 °F 55% 30.23 in 10.0 mi North 6.9 mph - N/A   Clear
11:58 PM 39.6 °F 34.0 °F 25.2 °F 56% 30.25 in 10.0 mi North 8.1 mph - N/A   Clear